EN

Hourly Weather Novyy Urengoy

Today, 16 May, Sunday

Time Temperature Precipitation Wind Pressure Humidity
00:00 -4°C° 0 mm 3 mps 761 mmHg 61%
01:00 -4°C° 0 mm 3 mps 761 mmHg 61%
02:00 -5°C° 0 mm 3 mps 761 mmHg 62%
03:00 -5°C° 0 mm 3 mps 761 mmHg 62%
04:00 -3°C° 0 mm 2 mps 761 mmHg 61%
05:00 -3°C° 0 mm 2 mps 761 mmHg 61%
06:00 -3°C° 0 mm 2 mps 761 mmHg 58%
07:00 -2°C° 0 mm 2 mps 761 mmHg 54%
08:00 -1°C° 0 mm 2 mps 761 mmHg 51%
09:00 +1°C° 0 mm 1 mps 761 mmHg 48%
10:00 +2°C° 0 mm 1 mps 761 mmHg 45%
11:00 +3°C° 0 mm 1 mps 761 mmHg 42%
12:00 +4°C° 0 mm 1 mps 761 mmHg 41%
13:00 +4°C° 0 mm 1 mps 761 mmHg 40%
14:00 +5°C° 0 mm 1 mps 761 mmHg 39%
15:00 +6°C° 0 mm 1 mps 760 mmHg 39%
16:00 +6°C° 0 mm 1 mps 760 mmHg 38%
17:00 +7°C° 0 mm 1 mps 760 mmHg 38%
18:00 +5°C° 0 mm 2 mps 759 mmHg 40%
19:00 +4°C° 0 mm 3 mps 759 mmHg 42%
20:00 +4°C° 0 mm 4 mps 759 mmHg 44%
21:00 +3°C° 0 mm 4 mps 759 mmHg 48%
22:00 +1°C° 0 mm 5 mps 759 mmHg 52%
23:00 -1°C° 0 mm 5 mps 759 mmHg 56%

Tomorrow, 17 May, Monday

Time Temperature Precipitation Wind Pressure Humidity
00:00 -1°C° 0 mm 5 mps 759 mmHg 55%
01:00 -1°C° 0 mm 5 mps 758 mmHg 54%
02:00 -1°C° 0 mm 5 mps 758 mmHg 53%
03:00 -1°C° 0 mm 5 mps 758 mmHg 53%
04:00 -1°C° 0 mm 5 mps 758 mmHg 53%
05:00 -1°C° 0 mm 5 mps 758 mmHg 53%
06:00 0°C° 0 mm 5 mps 758 mmHg 49%
07:00 +1°C° 0 mm 5 mps 758 mmHg 46%
08:00 +2°C° 0 mm 5 mps 757 mmHg 43%
09:00 +3°C° 0 mm 5 mps 757 mmHg 44%
10:00 +5°C° 0 mm 4 mps 757 mmHg 45%
11:00 +6°C° 0 mm 4 mps 757 mmHg 46%
12:00 +7°C° 0 mm 3 mps 757 mmHg 44%
13:00 +8°C° 0 mm 3 mps 757 mmHg 43%
14:00 +8°C° 0 mm 2 mps 757 mmHg 42%
15:00 +8°C° 0 mm 2 mps 757 mmHg 41%
16:00 +9°C° 0 mm 1 mps 756 mmHg 40%
17:00 +10°C° 0 mm 1 mps 756 mmHg 39%
18:00 +9°C° 0 mm 1 mps 756 mmHg 40%
19:00 +8°C° 0 mm 2 mps 756 mmHg 42%
20:00 +8°C° 0 mm 2 mps 756 mmHg 44%
21:00 +7°C° 0 mm 3 mps 756 mmHg 49%
22:00 +4°C° 0 mm 3 mps 756 mmHg 54%
23:00 +3°C° 0 mm 3 mps 756 mmHg 59%

Day after tomorrow, 18 May, Tuesday

Time Temperature Precipitation Wind Pressure Humidity
00:00 +1°C° 0 mm 4 mps 757 mmHg 63%
01:00 0°C° 0 mm 4 mps 757 mmHg 66%
02:00 -1°C° 0 mm 5 mps 757 mmHg 70%
03:00 -1°C° 0 mm 5 mps 757 mmHg 69%
04:00 -2°C° 0 mm 6 mps 757 mmHg 69%
05:00 -2°C° 0 mm 6 mps 757 mmHg 68%
06:00 -2°C° 0 mm 6 mps 758 mmHg 68%
07:00 -1°C° 0 mm 6 mps 758 mmHg 68%
08:00 -1°C° 0 mm 7 mps 758 mmHg 68%
09:00 -1°C° 0 mm 7 mps 759 mmHg 65%
10:00 -1°C° 0 mm 7 mps 759 mmHg 62%
11:00 0°C° 0 mm 7 mps 760 mmHg 59%
12:00 0°C° 0 mm 7 mps 760 mmHg 55%
13:00 0°C° 0 mm 7 mps 760 mmHg 50%
14:00 0°C° 0 mm 7 mps 760 mmHg 46%
15:00 0°C° 0 mm 7 mps 761 mmHg 44%
16:00 0°C° 0 mm 7 mps 761 mmHg 43%
17:00 -1°C° 0 mm 7 mps 762 mmHg 42%
18:00 -2°C° 0 mm 7 mps 762 mmHg 47%
19:00 -2°C° 0 mm 7 mps 763 mmHg 52%
20:00 -3°C° 0 mm 7 mps 763 mmHg 57%
21:00 -4°C° 0 mm 6 mps 764 mmHg 62%
22:00 -5°C° 0 mm 6 mps 764 mmHg 66%
23:00 -5°C° 0 mm 5 mps 764 mmHg 71%

19 May, Wednesday

Time Temperature Precipitation Wind Pressure Humidity
00:00 -6°C° 0 mm 5 mps 765 mmHg 69%
01:00 -6°C° 0 mm 5 mps 765 mmHg 68%
02:00 -6°C° 0 mm 5 mps 765 mmHg 67%
03:00 -6°C° 0 mm 5 mps 766 mmHg 66%
04:00 -6°C° 0 mm 5 mps 766 mmHg 64%
05:00 -4°C° 0 mm 4 mps 766 mmHg 63%
06:00 -5°C° 0 mm 5 mps 766 mmHg 59%
07:00 -4°C° 0 mm 5 mps 766 mmHg 56%
08:00 -2°C° 0 mm 5 mps 766 mmHg 52%
09:00 -2°C° 0 mm 5 mps 766 mmHg 49%
10:00 -1°C° 0 mm 5 mps 766 mmHg 47%
11:00 0°C° 0 mm 5 mps 766 mmHg 44%
12:00 0°C° 0 mm 5 mps 766 mmHg 42%
13:00 0°C° 0 mm 5 mps 766 mmHg 41%
14:00 +1°C° 0 mm 5 mps 766 mmHg 40%
15:00 +1°C° 0 mm 5 mps 765 mmHg 40%
16:00 +1°C° 0 mm 4 mps 765 mmHg 40%
17:00 0°C° 0 mm 4 mps 765 mmHg 40%
18:00 0°C° 0 mm 4 mps 765 mmHg 43%
19:00 +1°C° 0 mm 3 mps 765 mmHg 45%
20:00 0°C° 0 mm 3 mps 765 mmHg 47%
21:00 +1°C° 0 mm 2 mps 765 mmHg 52%
22:00 -1°C° 0 mm 2 mps 764 mmHg 57%
23:00 -1°C° 0 mm 2 mps 764 mmHg 61%

20 May, Thursday

Time Temperature Precipitation Wind Pressure Humidity
00:00 -1°C° 0 mm 2 mps 764 mmHg 63%
01:00 -1°C° 0 mm 3 mps 763 mmHg 65%
02:00 -2°C° 0 mm 3 mps 763 mmHg 67%
03:00 -2°C° 0 mm 4 mps 762 mmHg 66%
04:00 -2°C° 0 mm 5 mps 762 mmHg 65%
05:00 -2°C° 0 mm 5 mps 761 mmHg 64%
06:00 -3°C° 0.2 mm 6 mps 760 mmHg 69%
07:00 -3°C° 0.2 mm 7 mps 759 mmHg 73%
08:00 -4°C° 0.2 mm 8 mps 758 mmHg 78%
09:00 -4°C° 2.5 mm 9 mps 757 mmHg 85%
10:00 -4°C° 2.5 mm 9 mps 756 mmHg 91%
11:00 -4°C° 2.5 mm 10 mps 754 mmHg 97%
12:00 -4°C° 3 mm 10 mps 754 mmHg 97%
13:00 -4°C° 3 mm 10 mps 753 mmHg 98%
14:00 -4°C° 3 mm 10 mps 752 mmHg 98%
15:00 -4°C° 0.5 mm 9 mps 752 mmHg 98%
16:00 -4°C° 0.5 mm 9 mps 751 mmHg 98%
17:00 -2°C° 0.5 mm 8 mps 751 mmHg 98%
18:00 -2°C° 0 mm 7 mps 751 mmHg 98%
19:00 -2°C° 0 mm 7 mps 751 mmHg 98%
20:00 -2°C° 0 mm 6 mps 752 mmHg 98%
21:00 -3°C° 0 mm 6 mps 752 mmHg 98%
22:00 -2°C° 0 mm 5 mps 752 mmHg 98%
23:00 -2°C° 0 mm 5 mps 752 mmHg 98%

21 May, Friday

Time Temperature Precipitation Wind Pressure Humidity
00:00 -2°C° 0 mm 4 mps 752 mmHg 98%
01:00 -2°C° 0 mm 4 mps 752 mmHg 98%
02:00 -1°C° 0 mm 3 mps 752 mmHg 98%
03:00 -1°C° 0 mm 3 mps 752 mmHg 98%
04:00 -1°C° 0 mm 3 mps 752 mmHg 99%
05:00 -1°C° 0 mm 3 mps 753 mmHg 99%
06:00 -1°C° 0 mm 3 mps 753 mmHg 99%
07:00 0°C° 0 mm 3 mps 753 mmHg 99%
08:00 0°C° 0 mm 3 mps 752 mmHg 99%
09:00 0°C° 0 mm 3 mps 752 mmHg 99%
10:00 0°C° 0 mm 3 mps 752 mmHg 99%
11:00 0°C° 0 mm 3 mps 752 mmHg 99%
12:00 +1°C° 0 mm 3 mps 752 mmHg 99%
13:00 +1°C° 0 mm 3 mps 752 mmHg 99%
14:00 +1°C° 0 mm 3 mps 752 mmHg 99%
15:00 +1°C° 0.2 mm 3 mps 752 mmHg 99%
16:00 +1°C° 0.2 mm 3 mps 751 mmHg 99%
17:00 +1°C° 0.2 mm 3 mps 751 mmHg 99%
18:00 +1°C° 0 mm 3 mps 751 mmHg 99%
19:00 0°C° 0 mm 4 mps 750 mmHg 99%
20:00 0°C° 0 mm 4 mps 750 mmHg 99%
21:00 0°C° 0.1 mm 4 mps 750 mmHg 99%
22:00 0°C° 0.1 mm 4 mps 749 mmHg 99%
23:00 0°C° 0.1 mm 4 mps 749 mmHg 99%
Show more

We Need Your Consent

Meteoprog and our Service Providers may store and access personal data such as cookies, device identifiers or other similar technologies on your device and process such data to personalise content and ads, as well as provide social media features and to analyse the traffic.

  • Store and/or access information on your device

    Cookies, device identifiers or other information can be stored or accessed on your device for the purposes indicated above.

  • Personalised ads and content, ad and content measurement, audience insights, and products development

    Ads and content can be personalised based on a profile. More data can be added to better personalise ads and content. Ad and content performance can be measured. Insights about the audience who saw the ads and content can be derived. Such data can be used to develop or improve user’s experience, systems and software.

By clicking ‘I Agree’ you will allow the use of indicated cookies, device identifiers, web beacons or other similar technologies. Your settings can be changed in the browser on your device.

For certain purposes, legitimate interests may be relied on, rather than consent. You can read more about this in our Privacy and Cookie Policy.